Wind_Speed
15 14 14 15 17 19 18 23 32 32 38 37 39 43 41 38 36 33 30 30 26 23 20 19 21 24 24 23 22 20 19 18 17 15 13 13 12 12 13 14 12 13 13
18 18 15 18 20 21 22 23 27 31 36 35 35 41 37 38 34 34 33 29 27 21 20 24 23 27 27 26 26 25 25 23 22 22 18 12 15 15 17 17 15 14 15
22 23 27 23 19 21 25 27 28 33 32 31 34 35 36 34 36 35 32 31 33 27 24 25 26 27 29 29 28 27 27 25 26 25 19 10 10 12 14 18 18 16 15
22 23 27 25 28 27 27 32 33 32 33 33 37 35 38 36 36 37 34 35 31 28 26 28 30 29 31 29 28 28 27 27 29 28 26 23 16 11 10 15 15 17 18
31 30 30 30 34 34 36 33 32 33 36 36 36 33 36 37 34 36 35 33 31 29 27 30 31 34 32 30 29 30 29 29 31 31 28 25 21 17 17 13 17 18 17
37 35 32 32 37 40 39 37 35 34 35 38 37 37 36 37 37 36 33 34 32 32 33 33 35 34 34 33 30 31 31 31 32 31 29 26 22 20 19 18 20 19 19
45 42 41 41 42 46 44 43 39 37 36 36 36 37 37 35 33 32 33 33 36 38 36 34 36 38 37 34 32 32 34 33 33 28 26 25 24 24 21 20 21 23 22
45 48 47 45 45 47 47 45 43 40 39 38 37 38 37 36 33 33 34 34 34 36 37 36 36 39 38 35 33 36 36 33 32 29 25 26 23 20 16 21 24 23 24
45 49 47 46 47 47 50 50 47 43 41 41 39 38 38 40 39 38 39 37 34 33 32 33 31 33 38 38 37 37 37 36 37 28 27 29 22 21 23 20 20 22 23
44 45 46 47 47 47 47 50 49 48 46 43 41 40 40 39 42 41 42 43 39 36 33 32 30 31 38 39 37 38 39 35 29 27 30 26 23 23 22 20 18 20 22
41 45 46 46 47 48 47 47 48 50 49 47 45 44 43 44 44 47 46 46 43 38 33 34 34 35 36 35 36 41 34 34 33 31 28 25 26 21 16 16 20 22 23
34 36 36 33 44 48 47 48 47 47 48 44 46 46 46 45 45 45 51 50 42 36 35 35 29 29 33 37 35 39 37 35 33 28 26 22 19 17 17 21 22 23 23
26 31 32 33 34 38 44 48 48 46 45 44 45 46 47 47 47 47 47 42 22 36 36 29 21 25 26 33 32 35 36 34 28 25 20 19 17 19 22 22 23 24 27
23 25 24 26 22 24 31 36 42 45 45 45 47 47 44 44 44 47 42 24 36 34 32 27 25 26 28 34 33 39 29 24 21 18 16 18 20 21 23 25 26 28 30
19 21 27 26 22 22 24 25 31 37 41 43 44 44 43 40 40 38 31 30 36 35 29 32 32 26 29 35 37 29 24 21 19 19 20 19 21 24 25 26 28 29 31
5 15 20 27 26 25 24 28 31 32 36 40 40 37 40 39 35 31 32 34 31 33 30 33 28 28 31 30 22 22 20 20 19 20 19 23 25 26 28 30 29 29 31
17 17 18 24 29 27 28 28 29 32 32 32 33 37 39 34 28 24 18 25 29 30 30 29 27 28 27 25 23 20 19 18 19 21 24 25 28 29 29 28 28 30 32
20 17 15 15 21 27 29 29 29 30 29 27 30 28 22 17 19 19 21 22 25 33 32 30 26 22 23 23 20 19 19 20 21 23 24 25 25 26 28 32 33 33 32
14 11 10 10 12 22 26 28 28 28 26 22 18 15 13 14 17 20 22 24 28 29 28 21 22 24 21 19 17 19 20 22 22 22 23 23 26 29 29 30 30 30 30
9 10 11 11 14 18 19 19 18 16 15 14 13 13 14 16 17 19 22 23 24 26 24 22 20 18 18 18 21 20 21 21 21 22 23 25 26 25 23 25 27 29 28
11 11 11 12 14 14 14 14 15 14 13 11 12 12 13 14 16 19 20 24 24 21 20 18 18 18 17 18 18 18 20 21 21 22 21 21 21 22 22 23 24 25 27
13 12 11 11 11 10 10 12 12 12 11 10 11 12 13 15 16 21 24 22 21 19 19 19 21 20 17 16 18 20 22 22 21 19 20 21 21 21 21 22 22 23 26
13 12 10 10 7 5 6 9 10 10 9 11 10 12 15 18 19 19 18 17 16 19 19 16 14 14 15 17 19 20 19 19 19 22 22 23 22 21 20 19 21 23 25
13 12 11 11 11 7 3 5 10 12 13 13 13 15 15 17 15 15 16 16 15 13 12 12 12 12 13 15 16 16 19 24 23 24 23 22 21 19 18 19 21 22 22
14 16 18 18 16 14 14 16 15 13 13 15 17 17 17 16 16 15 14 13 10 6 4 7 11 12 14 16 21 25 24 23 23 22 21 19 19 19 19 20 21 22 22
22 22 23 22 22 22 22 21 18 17 18 20 19 16 16 15 14 10 5 3 1 5 11 13 13 14 17 20 19 18 19 18 17 18 18 18 19 20 21 22 23 23 24
Wind_Direction
186 195 194 197 195 196 194 197 190 185 184 191 188 186 193 187 183 181 199 191 196 202 200 203 216 222 220 215 217 219 227 215 214 218 225 230 244 259 266 272 273 278 286
178 187 183 182 184 196 195 194 190 188 184 183 186 180 186 188 192 191 195 197 196 209 215 218 218 221 219 214 218 228 222 216 216 217 223 231 239 244 242 250 257 264 270
177 184 178 175 191 204 202 196 188 184 190 190 181 182 193 201 194 195 200 204 207 212 221 225 224 224 219 222 227 227 225 221 219 222 220 209 220 229 237 242 245 247 254
186 184 188 192 199 206 199 195 194 193 192 187 186 189 191 193 202 205 211 206 213 219 221 227 228 228 225 230 237 232 227 226 228 224 224 230 240 220 221 235 244 245 251
190 187 194 194 186 192 188 185 184 187 186 188 188 189 195 199 199 204 214 222 224 229 231 230 234 230 227 236 240 233 231 233 232 232 230 230 233 243 240 238 234 248 257
197 195 191 189 190 190 189 189 188 189 188 191 193 197 203 208 214 218 222 227 229 229 227 226 230 234 233 235 237 238 240 241 238 232 236 239 241 250 248 251 264 267 264
196 198 197 196 193 193 193 195 196 197 199 205 210 213 215 216 220 223 226 229 226 225 227 229 232 235 237 238 239 243 241 241 232 229 228 238 249 255 247 257 268 270 275
200 204 204 202 200 199 199 200 203 205 206 210 214 217 220 222 225 228 233 232 233 235 233 230 233 235 236 237 238 236 237 233 234 228 229 243 250 244 248 268 271 276 277
205 211 211 210 209 208 209 209 210 212 215 216 217 220 224 227 230 231 233 237 240 238 236 233 234 232 233 233 234 236 235 238 228 227 251 250 239 247 259 257 269 274 277
208 213 214 218 218 219 218 218 220 220 219 221 221 222 225 231 235 236 237 240 241 243 241 235 232 236 235 236 237 241 233 245 229 244 255 238 241 258 256 267 268 272 280
210 216 224 227 228 226 222 224 224 226 225 225 229 230 230 232 237 238 240 240 243 245 246 243 230 236 235 235 242 246 236 240 238 251 239 244 260 256 260 269 272 272 279
208 217 223 229 231 232 228 229 231 230 230 232 233 237 238 239 241 248 240 238 241 252 255 248 233 234 230 234 243 241 238 237 241 235 247 252 252 254 257 266 266 269 270
198 204 212 218 226 232 234 235 237 241 236 235 236 240 242 243 247 250 252 240 248 238 250 237 228 229 229 232 234 243 234 241 232 246 244 249 244 248 258 258 260 266 272
206 204 198 199 203 217 230 235 238 241 243 241 242 243 245 248 249 248 248 240 253 244 243 231 231 230 236 231 230 229 231 228 240 238 230 233 244 250 254 260 267 271 274
206 214 213 207 210 213 212 222 233 238 241 240 239 241 247 248 250 266 247 247 242 247 242 231 223 229 231 228 223 216 217 223 226 229 237 241 243 253 259 266 271 273 275
208 235 221 213 211 213 214 217 222 226 233 237 238 240 239 247 252 247 243 246 242 221 232 223 231 229 227 216 214 218 222 230 228 235 237 238 248 255 263 270 271 274 278
191 184 199 211 218 213 214 215 217 223 225 227 230 231 235 241 241 238 252 240 220 230 220 224 221 210 206 209 208 219 226 227 226 229 239 250 260 265 268 270 274 276 277
185 186 192 203 212 213 211 212 213 214 216 223 224 228 235 237 241 247 225 235 242 221 211 201 201 202 205 210 214 221 221 226 236 247 259 264 267 274 279 281 282 282 281
186 206 226 234 226 211 207 205 206 206 213 219 226 228 223 232 238 236 240 234 213 201 195 193 200 202 207 212 210 219 234 245 251 259 264 272 280 282 283 283 285 287 288
207 222 222 227 213 207 204 203 206 214 217 219 218 225 237 243 237 230 221 208 201 197 198 197 202 211 209 216 216 229 244 251 260 267 275 281 281 282 285 288 290 294 298
192 205 209 206 202 202 205 211 214 210 211 218 232 232 229 232 227 219 207 195 193 196 197 202 200 203 211 211 238 246 255 262 269 277 278 280 284 288 290 289 291 294 296
182 192 191 190 193 203 214 216 213 220 211 202 218 220 223 217 201 193 186 188 192 199 203 204 200 201 219 238 243 256 264 272 279 284 289 293 294 293 292 289 287 289 293
170 174 184 182 187 197 212 214 195 193 202 197 193 177 173 176 179 182 187 194 205 212 202 196 204 237 238 247 259 266 276 283 293 294 296 297 297 295 290 284 287 295 302
166 173 177 165 162 171 188 203 185 180 175 173 178 176 178 174 180 187 185 184 181 188 211 240 254 246 255 262 273 284 295 290 290 290 291 292 292 290 288 291 296 303 308
163 172 176 171 164 168 158 164 175 180 177 173 167 166 169 166 165 165 157 171 191 215 246 269 278 276 279 283 291 285 285 288 290 290 293 292 289 291 296 301 305 310 313
172 169 162 164 156 162 156 155 165 180 178 169 162 158 161 158 155 159 154 107 339 280 263 250 254 264 272 279 277 282 290 298 306 305 302 298 298 299 302 304 307 312 314
Height
1477 1476 1475 1476 1479 1483 1486 1489 1492 1496 1501 1503 1507 1509 1514 1518 1522 1527 1533 1537 1542 1544 1545 1547 1550 1553 1555 1558 1562 1563 1564 1566 1568 1570 1571 1572 1572 1571 1571 1571 1571 1572 1571
1474 1476 1473 1477 1478 1481 1484 1487 1491 1493 1499 1500 1504 1508 1512 1516 1523 1527 1531 1535 1538 1540 1541 1543 1546 1549 1552 1554 1556 1558 1559 1561 1564 1566 1567 1568 1569 1567 1567 1568 1569 1570 1568
1464 1471 1475 1476 1477 1480 1483 1485 1488 1493 1497 1501 1504 1510 1513 1519 1523 1523 1527 1531 1535 1537 1539 1541 1543 1545 1548 1550 1552 1554 1555 1556 1558 1561 1563 1563 1563 1563 1563 1564 1564 1565 1564
1464 1467 1470 1472 1477 1481 1484 1487 1490 1493 1497 1501 1506 1509 1511 1513 1518 1521 1525 1527 1531 1534 1536 1537 1539 1543 1545 1548 1549 1551 1551 1553 1554 1556 1556 1556 1558 1558 1559 1559 1560 1561 1560
1462 1464 1467 1471 1475 1480 1483 1487 1489 1494 1497 1501 1505 1506 1510 1514 1517 1522 1523 1525 1528 1529 1532 1534 1536 1538 1540 1543 1544 1545 1546 1548 1550 1551 1552 1553 1554 1554 1554 1553 1556 1556 1555
1460 1464 1468 1472 1474 1478 1482 1485 1488 1493 1496 1500 1503 1505 1507 1511 1515 1516 1516 1520 1522 1524 1527 1529 1530 1532 1535 1536 1538 1540 1541 1542 1544 1546 1549 1550 1551 1549 1550 1550 1549 1549 1550
1456 1460 1463 1465 1468 1470 1475 1479 1483 1486 1491 1495 1498 1500 1502 1506 1507 1509 1511 1513 1515 1517 1519 1522 1524 1526 1529 1531 1534 1535 1536 1537 1538 1542 1543 1545 1547 1547 1546 1546 1547 1545 1544
1449 1451 1453 1457 1461 1465 1468 1472 1475 1480 1483 1486 1489 1493 1497 1498 1499 1501 1504 1506 1508 1510 1514 1516 1518 1521 1524 1526 1528 1528 1530 1530 1534 1533 1535 1539 1539 1543 1543 1543 1542 1540 1539
1441 1443 1448 1451 1454 1457 1459 1461 1466 1470 1475 1478 1483 1485 1489 1491 1492 1494 1497 1500 1503 1504 1506 1510 1513 1515 1517 1518 1520 1522 1524 1525 1525 1529 1532 1533 1536 1536 1536 1535 1536 1536 1533
1434 1439 1444 1446 1448 1450 1453 1459 1463 1463 1466 1472 1476 1478 1481 1484 1486 1489 1489 1492 1495 1497 1500 1503 1505 1508 1509 1512 1515 1516 1516 1520 1523 1524 1526 1528 1530 1529 1529 1529 1531 1531 1529
1428 1432 1436 1439 1441 1445 1450 1452 1458 1461 1465 1467 1469 1471 1474 1477 1481 1482 1482 1484 1488 1490 1493 1494 1497 1499 1502 1506 1509 1510 1512 1515 1517 1518 1519 1522 1523 1523 1523 1524 1525 1525 1524
1421 1425 1428 1431 1433 1437 1443 1445 1447 1452 1456 1460 1462 1464 1468 1471 1474 1475 1475 1478 1481 1485 1488 1488 1491 1495 1498 1501 1503 1504 1506 1508 1510 1512 1514 1516 1517 1517 1518 1519 1519 1518 1518
1417 1419 1424 1427 1429 1431 1433 1436 1440 1441 1448 1452 1456 1457 1460 1464 1467 1467 1465 1470 1476 1474 1480 1481 1485 1489 1491 1491 1493 1497 1499 1502 1503 1507 1507 1509 1511 1511 1512 1512 1512 1511 1510
1415 1417 1420 1422 1424 1426 1427 1430 1432 1436 1440 1444 1447 1450 1454 1456 1457 1457 1462 1465 1468 1470 1467 1472 1476 1479 1482 1485 1487 1489 1492 1497 1500 1502 1503 1504 1505 1506 1506 1507 1506 1505 1503
1413 1414 1416 1418 1420 1421 1424 1426 1428 1431 1434 1436 1440 1444 1447 1451 1452 1453 1454 1458 1462 1463 1464 1467 1470 1473 1476 1479 1479 1483 1487 1491 1493 1495 1499 1500 1501 1500 1499 1499 1498 1498 1496
1408 1409 1412 1414 1416 1418 1420 1421 1423 1426 1429 1432 1435 1439 1441 1443 1445 1447 1448 1449 1453 1455 1459 1462 1466 1469 1471 1474 1476 1480 1482 1485 1488 1491 1493 1495 1494 1493 1492 1490 1489 1489 1487
1405 1407 1407 1409 1411 1414 1415 1416 1419 1421 1425 1429 1432 1434 1435 1437 1440 1444 1446 1447 1450 1453 1454 1458 1461 1464 1466 1469 1472 1476 1478 1482 1484 1485 1488 1488 1487 1486 1484 1483 1482 1481 1479
1402 1405 1406 1407 1408 1411 1413 1415 1416 1418 1422 1425 1428 1430 1433 1436 1439 1440 1442 1445 1446 1447 1448 1452 1456 1461 1462 1465 1468 1472 1476 1478 1479 1481 1481 1481 1480 1478 1477 1475 1473 1472 1470
1401 1403 1405 1406 1408 1409 1411 1413 1415 1417 1420 1423 1426 1429 1431 1433 1436 1437 1438 1440 1441 1444 1447 1449 1453 1456 1461 1461 1466 1470 1472 1473 1474 1474 1474 1473 1472 1470 1469 1466 1464 1462 1461
1400 1402 1403 1405 1407 1408 1411 1414 1416 1417 1420 1422 1424 1427 1429 1430 1431 1433 1436 1438 1440 1442 1445 1448 1451 1455 1457 1460 1464 1466 1467 1468 1468 1468 1467 1466 1464 1462 1461 1459 1456 1453 1452
1398 1400 1402 1405 1407 1409 1412 1413 1415 1417 1419 1422 1424 1426 1428 1430 1432 1434 1435 1436 1438 1441 1445 1448 1450 1453 1457 1459 1461 1463 1463 1464 1463 1462 1462 1460 1458 1456 1454 1451 1449 1446 1443
1397 1400 1402 1405 1408 1410 1412 1413 1415 1417 1419 1421 1423 1425 1427 1429 1431 1433 1435 1437 1439 1442 1444 1446 1449 1451 1454 1455 1458 1458 1458 1458 1457 1456 1456 1455 1453 1450 1448 1445 1442 1440 1437
1397 1400 1403 1406 1408 1410 1412 1413 1415 1417 1420 1421 1423 1425 1426 1429 1431 1435 1438 1440 1441 1443 1444 1447 1448 1449 1451 1452 1453 1452 1452 1452 1451 1451 1449 1447 1445 1443 1441 1438 1436 1434 1431
1397 1400 1402 1404 1407 1410 1412 1414 1415 1418 1420 1421 1424 1426 1428 1430 1433 1436 1439 1441 1443 1444 1444 1446 1447 1449 1449 1449 1449 1449 1447 1446 1445 1445 1443 1442 1440 1437 1435 1433 1431 1428 1425
1397 1400 1400 1402 1406 1409 1411 1414 1416 1418 1421 1424 1427 1429 1431 1434 1435 1437 1439 1440 1441 1443 1445 1447 1448 1448 1447 1446 1445 1444 1443 1441 1440 1438 1437 1435 1433 1432 1430 1428 1425 1422 1419
1396 1398 1400 1403 1406 1409 1411 1415 1419 1422 1424 1426 1428 1431 1432 1434 1435 1435 1437 1439 1442 1444 1445 1444 1443 1443 1442 1441 1441 1440 1438 1437 1435 1433 1431 1429 1428 1426 1424 1422 1419 1416 1413